User: anonymous   Login
Location: Lake Superior Provincial Park
(47.3335°N, 84.6162°W)
Time: 17:44:41
(UTC-04:00)
Language:

Cosmos 2333 Rocket - Orbit

View from above orbital plane
View from above orbital plane
View from above satellite
View from above satellite

Ground track
Ground track

The orbit data is extracted from the following two-line orbital elements,

1 24298U 96051B   17233.51634972 -.00000060  00000-0 -61422-5 0  9997
2 24298  70.8494 284.4364 0013078  88.8334 271.4285 14.12495464 81045
Epoch (UTC): 21 August 2017 12:23:32
Eccentricity: 0.0013078
inclination: 70.8494°
perigee height: 841 km
apogee height: 860 km
right ascension of ascending node: 284.4364°
argument of perigee: 88.8334°
revolutions per day: 14.12495464
mean anomaly at epoch: 271.4285°
orbit number at epoch: 8104

The dashed part of the orbit path shows where the satellite is in the earth's shadow,  

DLR